| time (UTC) | temp F | wind direction | speed MPH | gust MPH | rain 1hr in | rain 24hr in | rain mn in | humidity % | barometer mb |
| 20260905203024 | 92 | 0 | 0.0 | 0.0 | 0.00 | 0.01 | 0.00 | 63 | 1012.2 |
| 20260905202003 | 91 | 244 | 0.0 | 1.0 | 0.00 | 0.01 | 0.00 | 65 | 1012.3 |
| 20260905201003 | 91 | 265 | 0.0 | 1.0 | 0.00 | 0.01 | 0.00 | 65 | 1012.3 |
| 20260905200004 | 92 | 280 | 1.0 | 10.0 | 0.00 | 0.01 | 0.00 | 65 | 1012.5 |
| 20260905195004 | 92 | 263 | 2.0 | 15.0 | 0.00 | 0.01 | 0.00 | 65 | 1012.5 |
| 20260905194003 | 92 | 50 | 0.0 | 1.0 | 0.00 | 0.01 | 0.00 | 65 | 1012.4 |
| 20260905193003 | 92 | 283 | 4.0 | 16.0 | 0.00 | 0.01 | 0.00 | 66 | 1012.6 |
| 20260905192003 | 93 | 251 | 0.0 | 10.0 | 0.00 | 0.01 | 0.00 | 66 | 1012.9 |
| 20260905191003 | 93 | 0 | 0.0 | 0.0 | 0.00 | 0.01 | 0.00 | 66 | 1012.8 |
| 20260905190003 | 94 | 242 | 0.0 | 1.0 | 0.00 | 0.01 | 0.00 | 62 | 1012.9 |
| 20260905185003 | 94 | 0 | 0.0 | 0.0 | 0.00 | 0.01 | 0.00 | 65 | 1013.0 |
| 20260905184003 | 94 | 0 | 0.0 | 0.0 | 0.00 | 0.01 | 0.00 | 63 | 1013.0 |
| 20260905183003 | 94 | 0 | 0.0 | 0.0 | 0.00 | 0.01 | 0.00 | 63 | 1013.0 |
| 20260905182004 | 93 | 0 | 0.0 | 0.0 | 0.00 | 0.01 | 0.00 | 64 | 1013.2 |
| 20260905181003 | 93 | 0 | 0.0 | 0.0 | 0.00 | 0.01 | 0.00 | 64 | 1013.3 |
| 20260905180003 | 93 | 0 | 0.0 | 0.0 | 0.00 | 0.01 | 0.00 | 64 | 1013.4 |
| 20260905175003 | 92 | 0 | 0.0 | 0.0 | 0.00 | 0.01 | 0.00 | 65 | 1013.5 |
| 20260905174003 | 92 | 0 | 0.0 | 0.0 | 0.00 | 0.01 | 0.00 | 66 | 1013.6 |
| 20260905173004 | 91 | 261 | 3.0 | 10.0 | 0.00 | 0.01 | 0.00 | 67 | 1013.8 |
| 20260905172003 | 91 | 264 | 2.0 | 11.0 | 0.00 | 0.01 | 0.00 | 67 | 1014.0 |
| 20260905171003 | 91 | 0 | 0.0 | 0.0 | 0.00 | 0.03 | 0.00 | 67 | 1014.2 |
| 20260905170003 | 92 | 0 | 0.0 | 0.0 | 0.00 | 0.03 | 0.00 | 68 | 1014.2 |
| 20260905165003 | 91 | 0 | 0.0 | 0.0 | 0.00 | 0.03 | 0.00 | 69 | 1014.6 |
| 20260905164003 | 91 | 0 | 0.0 | 0.0 | 0.00 | 0.03 | 0.00 | 69 | 1014.7 |
| 20260905163003 | 91 | 0 | 0.0 | 0.0 | 0.00 | 0.03 | 0.00 | 69 | 1014.7 |
| 20260905162003 | 91 | 0 | 0.0 | 0.0 | 0.00 | 0.03 | 0.00 | 73 | 1014.8 |
| 20260905161004 | 90 | 0 | 0.0 | 0.0 | 0.00 | 0.03 | 0.00 | 70 | 1015.2 |
| 20260905160003 | 90 | 0 | 0.0 | 0.0 | 0.00 | 0.03 | 0.00 | 75 | 1015.3 |
| 20260905155024 | 88 | 0 | 0.0 | 0.0 | 0.00 | 0.03 | 0.00 | 76 | 1015.3 |
| 20260905154003 | 88 | 0 | 0.0 | 0.0 | 0.00 | 0.03 | 0.00 | 76 | 1015.3 |
| 20260905153004 | 89 | 0 | 0.0 | 0.0 | 0.00 | 0.03 | 0.00 | 76 | 1015.2 |
| 20260905152003 | 89 | 0 | 0.0 | 0.0 | 0.00 | 0.03 | 0.00 | 76 | 1015.4 |
| 20260905151003 | 89 | 0 | 0.0 | 0.0 | 0.00 | 0.03 | 0.00 | 78 | 1015.4 |
| 20260905150024 | 88 | 0 | 0.0 | 0.0 | 0.00 | 0.03 | 0.00 | 79 | 1015.4 |
| 20260905145003 | 88 | 0 | 0.0 | 0.0 | 0.00 | 0.03 | 0.00 | 78 | 1015.3 |
| 20260905144024 | 87 | 0 | 0.0 | 0.0 | 0.00 | 0.03 | 0.00 | 79 | 1015.4 |
| 20260905143003 | 88 | 0 | 0.0 | 0.0 | 0.00 | 0.03 | 0.00 | 77 | 1015.3 |
| 20260905142003 | 88 | 0 | 0.0 | 0.0 | 0.00 | 0.03 | 0.00 | 80 | 1015.2 |
| 20260905141003 | 87 | 0 | 0.0 | 0.0 | 0.00 | 0.03 | 0.00 | 79 | 1015.2 |
| 20260905140004 | 86 | 0 | 0.0 | 0.0 | 0.00 | 0.03 | 0.00 | 78 | 1015.2 |
| 20260905135003 | 86 | 0 | 0.0 | 0.0 | 0.00 | 0.03 | 0.00 | 79 | 1015.3 |
| 20260905134004 | 85 | 0 | 0.0 | 0.0 | 0.00 | 0.03 | 0.00 | 82 | 1015.5 |
| 20260905133004 | 83 | 0 | 0.0 | 0.0 | 0.00 | 0.03 | 0.00 | 83 | 1015.5 |
| 20260905132004 | 82 | 0 | 0.0 | 0.0 | 0.00 | 0.03 | 0.00 | 84 | 1015.5 |
| 20260905131003 | 82 | 0 | 0.0 | 0.0 | 0.00 | 0.03 | 0.00 | 84 | 1015.4 |
| 20260905130004 | 81 | 0 | 0.0 | 0.0 | 0.00 | 0.03 | 0.00 | 85 | 1015.2 |
| 20260905125003 | 81 | 0 | 0.0 | 0.0 | 0.00 | 0.03 | 0.00 | 86 | 1015.2 |
| 20260905124003 | 80 | 0 | 0.0 | 0.0 | 0.00 | 0.03 | 0.00 | 88 | 1015.3 |
| 20260905123003 | 79 | 0 | 0.0 | 0.0 | 0.00 | 0.03 | 0.00 | 90 | 1015.3 |
| 20260905122003 | 78 | 0 | 0.0 | 0.0 | 0.00 | 0.03 | 0.00 | 91 | 1015.3 |
| 20260905121003 | 78 | 0 | 0.0 | 0.0 | 0.00 | 0.03 | 0.00 | 92 | 1015.2 |
| 20260905120004 | 77 | 0 | 0.0 | 0.0 | 0.00 | 0.03 | 0.00 | 93 | 1014.9 |
| 20260905115024 | 77 | 0 | 0.0 | 0.0 | 0.00 | 0.03 | 0.00 | 93 | 1014.8 |
| 20260905114003 | 76 | 0 | 0.0 | 0.0 | 0.00 | 0.03 | 0.00 | 93 | 1014.7 |
| 20260905113003 | 76 | 0 | 0.0 | 0.0 | 0.00 | 0.03 | 0.00 | 93 | 1014.8 |
| 20260905112003 | 76 | 0 | 0.0 | 0.0 | 0.00 | 0.03 | 0.00 | 93 | 1014.6 |
| 20260905111003 | 76 | 0 | 0.0 | 0.0 | 0.00 | 0.03 | 0.00 | 93 | 1014.6 |
| 20260905110003 | 76 | 0 | 0.0 | 0.0 | 0.00 | 0.03 | 0.00 | 93 | 1014.5 |
| 20260905105003 | 77 | 0 | 0.0 | 0.0 | 0.00 | 0.03 | 0.00 | 93 | 1014.4 |
| 20260905104024 | 77 | 0 | 0.0 | 0.0 | 0.00 | 0.03 | 0.00 | 93 | 1014.2 |
| 20260905103003 | 77 | 0 | 0.0 | 0.0 | 0.00 | 0.03 | 0.00 | 93 | 1014.1 |
| 20260905102003 | 77 | 0 | 0.0 | 0.0 | 0.00 | 0.03 | 0.00 | 93 | 1014.2 |
| 20260905101003 | 77 | 0 | 0.0 | 0.0 | 0.00 | 0.03 | 0.00 | 93 | 1014.4 |
| 20260905100024 | 77 | 0 | 0.0 | 0.0 | 0.00 | 0.03 | 0.00 | 93 | 1014.1 |
| 20260905095025 | 77 | 0 | 0.0 | 0.0 | 0.00 | 0.03 | 0.00 | 93 | 1014.1 |
| 20260905094003 | 78 | 0 | 0.0 | 0.0 | 0.00 | 0.03 | 0.00 | 93 | 1014.0 |
| 20260905093024 | 78 | 0 | 0.0 | 0.0 | 0.00 | 0.03 | 0.00 | 93 | 1014.1 |
| 20260905092003 | 78 | 0 | 0.0 | 0.0 | 0.00 | 0.03 | 0.00 | 93 | 1014.1 |
| 20260905091003 | 78 | 0 | 0.0 | 0.0 | 0.00 | 0.03 | 0.00 | 93 | 1014.1 |
| 20260905090003 | 78 | 0 | 0.0 | 0.0 | 0.00 | 0.03 | 0.00 | 93 | 1014.2 |
| 20260905085003 | 78 | 0 | 0.0 | 0.0 | 0.00 | 0.03 | 0.00 | 93 | 1014.1 |
| 20260905084005 | 78 | 0 | 0.0 | 0.0 | 0.00 | 0.03 | 0.00 | 92 | 1014.3 |
| 20260905083026 | 78 | 0 | 0.0 | 0.0 | 0.00 | 0.03 | 0.00 | 92 | 1014.2 |
| 20260905082005 | 78 | 0 | 0.0 | 0.0 | 0.00 | 0.03 | 0.00 | 92 | 1014.2 |
| 20260905081004 | 78 | 0 | 0.0 | 0.0 | 0.00 | 0.03 | 0.00 | 92 | 1014.2 |
| 20260905080005 | 78 | 0 | 0.0 | 0.0 | 0.00 | 0.03 | 0.00 | 92 | 1014.1 |
| 20260905075004 | 78 | 0 | 0.0 | 0.0 | 0.00 | 0.03 | 0.00 | 92 | 1014.0 |
| 20260905074004 | 78 | 0 | 0.0 | 0.0 | 0.00 | 0.03 | 0.00 | 92 | 1013.9 |
| 20260905073026 | 78 | 0 | 0.0 | 0.0 | 0.00 | 0.03 | 0.00 | 92 | 1014.0 |
| 20260905072005 | 78 | 0 | 0.0 | 0.0 | 0.00 | 0.03 | 0.00 | 92 | 1014.1 |
| 20260905071026 | 78 | 0 | 0.0 | 0.0 | 0.00 | 0.03 | 0.00 | 92 | 1014.2 |
| 20260905070005 | 78 | 0 | 0.0 | 0.0 | 0.00 | 0.03 | 0.00 | 91 | 1014.3 |
| 20260905065004 | 78 | 0 | 0.0 | 0.0 | 0.00 | 0.03 | 0.00 | 92 | 1014.5 |
| 20260905064004 | 78 | 0 | 0.0 | 0.0 | 0.00 | 0.03 | 0.00 | 91 | 1014.6 |
| 20260905063004 | 78 | 0 | 0.0 | 0.0 | 0.00 | 0.03 | 0.00 | 91 | 1014.5 |
| 20260905062004 | 78 | 0 | 0.0 | 0.0 | 0.00 | 0.03 | 0.00 | 90 | 1014.7 |
| 20260905061004 | 78 | 0 | 0.0 | 0.0 | 0.00 | 0.03 | 0.00 | 90 | 1014.6 |
| 20260905060025 | 79 | 0 | 0.0 | 0.0 | 0.00 | 0.03 | 0.00 | 90 | 1014.8 |
| 20260905055004 | 79 | 0 | 0.0 | 0.0 | 0.00 | 0.03 | 0.00 | 89 | 1015.0 |
| 20260905054004 | 79 | 0 | 0.0 | 0.0 | 0.00 | 0.03 | 0.00 | 89 | 1015.0 |
| 20260905053004 | 80 | 0 | 0.0 | 0.0 | 0.00 | 0.03 | 0.00 | 88 | 1015.1 |
| 20260905052004 | 80 | 0 | 0.0 | 0.0 | 0.00 | 0.03 | 0.00 | 89 | 1015.3 |
| 20260905051004 | 80 | 0 | 0.0 | 0.0 | 0.00 | 0.03 | 0.00 | 89 | 1015.5 |
| 20260905050004 | 80 | 0 | 0.0 | 0.0 | 0.00 | 0.03 | 0.00 | 91 | 1015.3 |
| 20260905045004 | 80 | 0 | 0.0 | 0.0 | 0.00 | 0.03 | 0.00 | 90 | 1015.4 |
| 20260905044025 | 80 | 0 | 0.0 | 0.0 | 0.00 | 0.03 | 0.00 | 91 | 1015.5 |
| 20260905043004 | 79 | 0 | 0.0 | 0.0 | 0.00 | 0.03 | 0.00 | 91 | 1015.5 |
| 20260905042004 | 79 | 0 | 0.0 | 0.0 | 0.00 | 0.03 | 0.00 | 90 | 1015.6 |
| 20260905041004 | 80 | 0 | 0.0 | 0.0 | 0.00 | 0.03 | 0.00 | 90 | 1015.5 |
| 20260905040005 | 80 | 0 | 0.0 | 0.0 | 0.00 | 0.03 | 0.00 | 90 | 1015.5 |
| 20260905035026 | 80 | 0 | 0.0 | 0.0 | 0.00 | 0.03 | 0.03 | 90 | 1015.5 |
| 20260905034004 | 80 | 0 | 0.0 | 0.0 | 0.00 | 0.03 | 0.03 | 90 | 1015.7 |
| 20260905033004 | 80 | 0 | 0.0 | 0.0 | 0.00 | 0.03 | 0.03 | 89 | 1015.6 |
| 20260905032004 | 80 | 0 | 0.0 | 0.0 | 0.00 | 0.03 | 0.03 | 90 | 1015.7 |
| 20260905031004 | 80 | 0 | 0.0 | 0.0 | 0.00 | 0.03 | 0.03 | 90 | 1015.7 |
| 20260905030004 | 80 | 0 | 0.0 | 0.0 | 0.00 | 0.03 | 0.03 | 89 | 1015.8 |
| 20260905025004 | 80 | 0 | 0.0 | 0.0 | 0.00 | 0.03 | 0.03 | 89 | 1015.9 |
| 20260905024004 | 81 | 0 | 0.0 | 0.0 | 0.00 | 0.03 | 0.03 | 88 | 1015.9 |
| 20260905023005 | 81 | 0 | 0.0 | 0.0 | 0.00 | 0.03 | 0.03 | 88 | 1015.9 |
| 20260905022004 | 81 | 0 | 0.0 | 0.0 | 0.00 | 0.03 | 0.03 | 88 | 1015.8 |
| 20260905021025 | 81 | 0 | 0.0 | 0.0 | 0.00 | 0.03 | 0.03 | 87 | 1016.2 |
| 20260905020004 | 81 | 0 | 0.0 | 0.0 | 0.00 | 0.03 | 0.03 | 87 | 1016.0 |
| 20260905015004 | 81 | 0 | 0.0 | 0.0 | 0.00 | 0.03 | 0.03 | 86 | 1015.8 |
| 20260905014004 | 82 | 0 | 0.0 | 0.0 | 0.01 | 0.03 | 0.03 | 85 | 1015.6 |
| 20260905013004 | 82 | 0 | 0.0 | 0.0 | 0.01 | 0.03 | 0.03 | 85 | 1015.8 |
| 20260905012004 | 82 | 6 | 0.0 | 4.0 | 0.01 | 0.03 | 0.03 | 85 | 1015.9 |
| 20260905011025 | 82 | 22 | 1.0 | 8.0 | 0.01 | 0.03 | 0.03 | 86 | 1015.6 |
| 20260905010004 | 81 | 0 | 0.0 | 0.0 | 0.01 | 0.03 | 0.03 | 86 | 1015.9 |
| 20260905005005 | 82 | 0 | 0.0 | 0.0 | 0.01 | 0.03 | 0.03 | 85 | 1015.7 |
| 20260905004025 | 82 | 0 | 0.0 | 0.0 | 0.00 | 0.02 | 0.02 | 83 | 1015.8 |
| 20260905003004 | 82 | 0 | 0.0 | 0.0 | 0.00 | 0.02 | 0.02 | 82 | 1015.5 |
| 20260905002004 | 83 | 0 | 0.0 | 0.0 | 0.00 | 0.02 | 0.02 | 82 | 1015.3 |
| 20260905001004 | 83 | 0 | 0.0 | 0.0 | 0.00 | 0.02 | 0.02 | 81 | 1015.3 |
| 20260905000004 | 83 | 0 | 0.0 | 0.0 | 0.00 | 0.02 | 0.02 | 81 | 1015.2 |
| 20260904235004 | 84 | 200 | 0.0 | 1.0 | 0.00 | 0.02 | 0.02 | 80 | 1014.9 |
| 20260904234025 | 84 | 0 | 0.0 | 0.0 | 0.00 | 0.02 | 0.02 | 79 | 1014.5 |
| 20260904233004 | 85 | 0 | 0.0 | 0.0 | 0.00 | 0.02 | 0.02 | 79 | 1014.6 |
| 20260904232004 | 85 | 0 | 0.0 | 0.0 | 0.00 | 0.02 | 0.02 | 78 | 1014.7 |
| 20260904231004 | 85 | 0 | 0.0 | 0.0 | 0.00 | 0.02 | 0.02 | 78 | 1014.5 |
| 20260904230005 | 85 | 0 | 0.0 | 0.0 | 0.00 | 0.02 | 0.02 | 77 | 1014.6 |
| 20260904225004 | 85 | 0 | 0.0 | 0.0 | 0.00 | 0.02 | 0.02 | 77 | 1014.3 |
| 20260904224025 | 85 | 200 | 1.0 | 3.0 | 0.00 | 0.02 | 0.02 | 76 | 1014.2 |
| 20260904223004 | 86 | 197 | 1.0 | 4.0 | 0.00 | 0.02 | 0.02 | 75 | 1014.1 |
| 20260904222004 | 87 | 181 | 2.0 | 6.0 | 0.00 | 0.02 | 0.02 | 72 | 1014.1 |
| 20260904221004 | 89 | 172 | 3.0 | 7.0 | 0.00 | 0.02 | 0.02 | 72 | 1013.7 |
| 20260904220025 | 90 | 178 | 2.0 | 4.0 | 0.00 | 0.02 | 0.02 | 71 | 1013.6 |
| 20260904215005 | 92 | 174 | 1.0 | 4.0 | 0.00 | 0.03 | 0.02 | 69 | 1013.8 |
| 20260904214004 | 92 | 213 | 2.0 | 10.0 | 0.00 | 0.03 | 0.02 | 66 | 1014.1 |
| 20260904213004 | 92 | 199 | 2.0 | 8.0 | 0.00 | 0.03 | 0.02 | 67 | 1014.1 |
| 20260904212004 | 93 | 192 | 1.0 | 4.0 | 0.00 | 0.05 | 0.02 | 66 | 1013.8 |
| 20260904211004 | 93 | 196 | 1.0 | 5.0 | 0.00 | 0.06 | 0.02 | 65 | 1013.7 |
| 20260904210004 | 93 | 230 | 1.0 | 6.0 | 0.00 | 0.06 | 0.02 | 65 | 1013.7 |
| 20260904205025 | 92 | 219 | 1.0 | 7.0 | 0.00 | 0.07 | 0.02 | 69 | 1013.7 |
| 20260904204005 | 91 | 221 | 1.0 | 4.0 | 0.00 | 0.11 | 0.02 | 68 | 1013.9 |